Volver al catálogo

COSMOS 252 DEB

ActivoLEO
NORAD 19309·DEBRIS·🇷🇺 Russia

Lanzado Nov 1, 1968 desde Baikonur Cosmodrome

Loading…

Próximos Pases (próximas 24 horas)

TLE

ActualizadoSource: Space-Track

Época: Sep 14, 2026, 02:43 UTC

1 19309U 68097ES  26257.11380635 -.00000049  00000-0  25846-4 0  9994
2 19309  62.3802  93.9333 0886223 287.2193  63.3751 13.04586187682819

Sigue COSMOS 252 DEB en tiempo real con AllMySat

Download on the App Store